Regional Weather Roundup
Issued by NWS

Home | Current Version | Previous Version | Graphics & Text | Print | Product List | Glossary On
Versions: 1 2 3 4 5 6 7 8 9 10 11 12 13 14 15 16 17 18 19 20 21 22 23 24 25 26 27 28 29 30 31 32 33 34 35 36 37 38 39 40 41 42 43 44 45 46 47 48 49 50
000
ASUS45 KPSR 161710
RWRAZ

ARIZONA REGIONAL HOURLY WEATHER ROUNDUP
NATIONAL WEATHER SERVICE PHOENIX AZ
1000 AM MST TUE SEP 16 2014

NOTE: FAIR INDICATES FEW OR NO CLOUDS BELOW 12,000 FEET WITH NO
SIGNIFICANT WEATHER AND/OR OBSTRUCTIONS TO VISIBILITY.

AZZ001>003-036-161800-
NORTHWEST ARIZONA

CITY           SKY/WX    TMP DP  RH WIND       PRES   REMARKS
BULLHEAD CITY  SUNNY     93  66  40 S15       29.90S
KINGMAN        SUNNY     83  58  42 SW9       30.08S
$$

AZZ004>008-015-016-018-161800-
NORTH CENTRAL ARIZONA

CITY           SKY/WX    TMP DP  RH WIND       PRES   REMARKS
GRAND CANYON   SUNNY     72  48  42 SE3       30.32S
PRESCOTT       MOSUNNY   77  57  50 SE10      30.21S
FLAGSTAFF      PTSUNNY   68  52  56 VRB3      30.34S
PAYSON         PTSUNNY   73  57  56 VRB5      30.24F
PAGE           SUNNY     81  50  33 VRB6      30.17S
$$

AZZ009>014-017-161800-
NORTHEAST ARIZONA

CITY           SKY/WX    TMP DP  RH WIND       PRES   REMARKS
WINSLOW        MOSUNNY   77  56  48 E7        30.21F
SAINT JOHNS    CLOUDY    73  53  49 VRB3      30.26S
SHOW LOW       CLOUDY    68  52  56 S12       30.33R
$$

AZZ023-161800-
GREATER PHOENIX AREA

CITY           SKY/WX    TMP DP  RH WIND       PRES   REMARKS
PHOENIX        CLOUDY    90  63  40 E10       29.93S
BUCKEYE          N/A     86  72  62 NE9       29.94S
GLENDALE       PTSUNNY   88  70  55 CALM      29.95F
LUKE AFB       PTSUNNY   86  69  56 E3        29.94S
DEER VALLEY    PTSUNNY   86  63  45 SE6       29.96S
SCOTTSDALE     CLOUDY    86  65  49 S3        29.97F
MESA-GATEWAY   PTSUNNY   86  64  48 SE12      29.98S
CHANDLER       PTSUNNY   86  64  48 E20G25    29.96R
$$

AZZ027-028-161800-
SOUTHWEST MARICOPA COUNTY AND PINAL COUNTY

CITY           SKY/WX    TMP DP  RH WIND       PRES   REMARKS
CASA GRANDE    CLOUDY    79  66  65 SE9       29.99R
GILA BEND      PTSUNNY   84  73  70 NE3       29.92S
$$

AZZ503-504-507>509-161800-
SOUTHEAST ARIZONA

CITY           SKY/WX    TMP DP  RH WIND       PRES   REMARKS
TUCSON         CLOUDY    76  65  68 SE8       30.06S
DAVIS-MONTHAN  CLOUDY    75  66  73 E6        30.04S
RYAN FIELD       N/A     77  66  69 E8        30.04F
NOGALES        CLOUDY    72  63  73 N9G17     30.08S
SIERRA VISTA   CLOUDY    66  64  94 E6        30.17F
DOUGLAS        CLOUDY    73  63  70 E13       30.14F
SAFFORD        LGT RAIN  71  66  84 SE8       30.12F
$$

AZZ020-021-025-026-031-161800-
SOUTHWEST ARIZONA

CITY           SKY/WX    TMP DP  RH WIND       PRES   REMARKS
YUMA           PTSUNNY   93  64  38 NE9       29.84S
$$

CAZ031-033-041-043-047-048-061-161800-
SOUTHERN CALIFORNIA

CITY           SKY/WX    TMP DP  RH WIND       PRES   REMARKS
DOWNTOWN L.A.  SUNNY     94  62  34 CALM      29.76F
L.A. AIRPORT   MOSUNNY   88  63  43 CALM      29.78S
SAN DIEGO      MOSUNNY   85  66  53 NW6       29.78S
BURBANK        SUNNY     92  52  25 CALM      29.81S
ONTARIO        MOSUNNY   94  61  33 S5        29.82S
RIVERSIDE      SUNNY     95  64  35 E6        29.81F
PALM SPRINGS   SUNNY     92  71  50 E8        29.89F
EL CENTRO NAS  MOSUNNY   92  71  50 SE8       29.82F
IMPERIAL       SUNNY     91  72  53 SE10      29.81F
BLYTHE         SUNNY     93  70  46 VRB5      29.86S
NEEDLES        SUNNY     94  65  38 SW9       29.90S
$$

NVZ020-UTZ003-161800-
SOUTHERN NEVADA-UTAH

CITY           SKY/WX    TMP DP  RH WIND       PRES   REMARKS
LAS VEGAS      SUNNY     92  47  21 SW3       29.92S
SALT LAKE CITY PTSUNNY   78  43  28 SE12      30.10F
$$

NMZ009-TXZ055-161800-
NEW MEXICO-WEST TEXAS

CITY           SKY/WX    TMP DP  RH WIND       PRES   REMARKS
ALBUQUERQUE    CLOUDY    69  57  65 S3        30.32S
EL PASO        CLOUDY    70  64  81 N12       30.21S
$$


........................KEY........................
SKY/WX - SKY CONDITION/WEATHER
TMP    - TEMPERATURE IN FAHRENHEIT
DP     - DEW POINT IN FAHRENHEIT
RH     - RELATIVE HUMIDITY IN PERCENT
WIND   - DIRECTION AND SPEED IN MILES PER HOUR (MPH)
VRB    - VARIABLE WIND DIRECTION
PRES   - MEAN SEA LEVEL PRESSURE IN INCHES OF MERCURY
         F - FALLING PRESSURE   R - RISING PRESSURE
         S - STEADY PRESSURE
VSB    - VISIBILITY IN MILES
HX     - HEAT INDEX IN FAHRENHEIT
WCI    - WIND CHILL INDEX IN FAHRENHEIT
TC     - TEMPERATURE IN CELSIUS WHICH IS ALSO KNOWN AS
         TEMPERATURE IN CENTIGRADE
AFB    - AIR FORCE BASE
         LUKE AFB IS LUKE AIR FORCE BASE
         DAVIS-MONTHAN IS DAVIS-MONTHAN AIR FORCE BASE
NAS    - NAVAL AIR STATION
         EL CENTRO NAS IS EL CENTRO NAVAL AIR STATION
N/A    - NOT AVAILABLE



USA.gov is the U.S. government's official web portal to all federal, state and local government web resources and services.